Terminal Aerodrome Forecast
Issued by NWS

Home | Current Version | Previous Version | Text Only | Print | Product List | Glossary On
Versions: 1 2 3 4 5 6 7 8 9 10 11 12 13 14 15 16 17 18 19 20 21 22 23 24 25 26 27
059
FTUS41 KGYX 052046 AAB
TAFPSM
TAF AMD
KPSM 052046Z 0521/0618 04009G16KT P6SM OVC009
     FM052200 01010G17KT 5SM -RA BR OVC012
     FM060900 36006KT 5SM -DZ BR OVC015
     FM061500 03007KT P6SM OVC025=

USA.gov is the U.S. government's official web portal to all federal, state and local government web resources and services.